COSMOS 1054

Satellite information

Favourite Embed

Satellite Type and Status

PAYLOADIN ORBIT

Key statistics

Satellite COSMOS 1054 at a glance.

Uptime

17176

Days in orbit

Revolutions

≈ 12.5

Per day

Orbit

LEO

Low Earth Orbit

Inclination

74.0

Latest

Satellite identification and parameters

Extended collection of information and parameters for COSMOS 1054.

Object identification

Identified? True

Debris? False

Object name: COSMOS 1054

International designator: 1978-109D

Object number (NORAD): 11131

Object ID (CCSDS): 11131

Country: COMMONWEALTH OF INDEPENDENT STATES (CIS)

Current information (Y/N): Y

RCS size: MEDIUM

Orbital parameters

Period: 115.264 minutes

Inclination: 74.0157 deg

SMA: 7845.522 km

Apoapsis: 1489.281 km

Periapsis: 1445.493 km

RAAN: 228.4398 deg

Eccentricy: 0.00279068

Argument of periapsis: 297.4273 deg

Mean anomaly: 128.8141 deg

Mean motion: 12.49309388 rev/day

Mean motion (dot): -0.00000016 rev/day2

B* drag term: -0.000000882727 1/REarth

Two-line elements (TLE)

Creation date: Dec. 14, 2025, 3:07 a.m.

Reference frame: TEME

Reference center: EARTH

Epoch: Dec. 13, 2025, 3:59 p.m. UTC

TLE line 0: 0 COSMOS 1054

TLE line 1: 1 11131U 78109D 25347.66646995 -.00000016 00000-0 -88273-6 0 9997

TLE line 2: 2 11131 74.0157 228.4398 0027907 297.4273 128.8141 12.49309388144560

Live tracking on map

Real-time ground track for satellite COSMOS 1054.

In-orbit conjunctions

There are no conjunctions computed for COSMOS 1054, at the moment. Check back to stay up to date, as we update our databases every day.

Go to all conjunctions

Associated space launch

Military communications satellites

COSMOS 1054 was lifted into orbit during the mission ‘Kosmos-3M | Strela-1M 161-168’, on board a Kosmos-3M space rocket.

The launch took place on Dec. 5, 1978, 6:12 p.m. from 132/2.

For more information about the launch, click the button.

Launch to space Kosmos-3M | Strela-1M 161-168
Kosmos-3M | Strela-1M 161-168

Agency: N/A

Status: Launch Successful

Launch date: Dec. 5, 1978, 6:12 p.m. UTC

Rocket: Kosmos-3M

Launch pad: 132/2

Location: Plesetsk Cosmodrome, Russian Federation

...

Latest news about this satellite

There are no fresh news available about this satellite. Check back as we update our databases every day.


Newsletter sign-up

Weekly statistics, charts and insights to help you stay on top of the space industry.